Retour au catalogue

DELTA 1 DEB

ActifSSO
NORAD 10763·DEBRIS·🇺🇸 United States

Lancé Jul 29, 1976 depuis Vandenberg Space Force Base

Loading…

Prochains Passages (prochaines 24 heures)

TLE

FraisSource: Space-Track

Époque: Sep 14, 2026, 10:07 UTC

1 10763U 76077BL  26257.42220206 -.00000006  00000-0  31652-3 0  9991
2 10763 102.2567 226.1705 0045564 224.9603 289.8032 12.33867455257487

Suivez DELTA 1 DEB en temps réel avec AllMySat

Download on the App Store